METEOR 2-8 DEB

Satellite information

Favourite Embed

Satellite Type and Status

DEBRISIN ORBIT

Key statistics

Satellite METEOR 2-8 DEB at a glance.

Uptime

15864

Days in orbit

Revolutions

≈ 14.3

Per day

Orbit

LEO

Low Earth Orbit

Inclination

82.5

Latest

Satellite identification and parameters

Extended collection of information and parameters for METEOR 2-8 DEB.

Object identification

Identified? True

Debris? True

Object name: METEOR 2-8 DEB

International designator: 1982-025F

Object number (NORAD): 36321

Object ID (CCSDS): 36321

Country: COMMONWEALTH OF INDEPENDENT STATES (CIS)

Current information (Y/N): Y

RCS size: SMALL

Orbital parameters

Period: 100.792 minutes

Inclination: 82.521 deg

SMA: 7174.273 km

Apoapsis: 803.351 km

Periapsis: 788.926 km

RAAN: 89.8752 deg

Eccentricy: 0.00100529

Argument of periapsis: 255.3417 deg

Mean anomaly: 104.6653 deg

Mean motion: 14.28682973 rev/day

Mean motion (dot): 0.00001931 rev/day2

B* drag term: 0.00076173256 1/REarth

Two-line elements (TLE)

Creation date: Aug. 26, 2025, 4:03 a.m.

Reference frame: TEME

Reference center: EARTH

Epoch: Aug. 25, 2025, 9:46 p.m. UTC

TLE line 0: 0 METEOR 2-8 DEB

TLE line 1: 1 36321U 82025F 25237.90758507 .00001931 00000-0 76173-3 0 9993

TLE line 2: 2 36321 82.5210 89.8752 0010053 255.3417 104.6653 14.28682973679029

Live tracking on map

Real-time ground track for satellite METEOR 2-8 DEB.

In-orbit conjunctions

A list of the most updated potential collisions computed for object METEOR 2-8 DEB.

Target Orbit TCA Probability of collision Miss distance Type
DMSP 5D-2 F13 DEB SSO 2025-02-16 07:23:58 0.0001198789 129.0 (m) DEBRIS
IRS P2 SSO 2025-01-21 18:14:01 0.0002023027 366.0 (m) PAYLOAD

Associated space launch

Second generation soviet meteorological satellite

METEOR 2-8 DEB was lifted into orbit during the mission ‘Tsiklon-3 | Meteor-2 8’, on board a Tsiklon-3 space rocket.

The launch took place on March 25, 1982, 9:50 a.m. from 32/1.

For more information about the launch, click the button.

Launch to space Tsiklon-3 | Meteor-2 8
Tsiklon-3 | Meteor-2 8

Agency: N/A

Status: Launch Successful

Launch date: March 25, 1982, 9:50 a.m. UTC

Rocket: Tsiklon-3

Launch pad: 32/1

Location: Plesetsk Cosmodrome, Russian Federation

...

Latest news about this satellite

There are no fresh news available about this satellite. Check back as we update our databases every day.


Newsletter sign-up

Weekly statistics, charts and insights to help you stay on top of the space industry.